Greenville, AL

7:11 PM CDT on September 20, 2017 (GMT -0500)
Greenville Municipal

Weather History for KPRN - November, 2012

Change the Weather History Date:

Friday, November 16, 2012

  Actual Average Record
Temperature  
Mean Temperature 52 °F -  
Max Temperature 63 °F 68 °F 85 °F (1987)
Min Temperature 41 °F 44 °F 20 °F (1940)
Degree Days  
Heating Degree Days 13    
Growing Degree Days 2 (Base 50)    
Moisture  
Dew Point 43 °F    
Average Humidity 80    
Maximum Humidity 96    
Minimum Humidity 48    
Precipitation  
Precipitation 0.00 in - - ()
Sea Level Pressure  
Sea Level Pressure 30.26 in    
Wind  
Wind Speed 3 mph (NNE)    
Max Wind Speed 10 mph    
Max Gust Speed 16 mph    
Visibility 9 miles    
Events      
Averages and records for this station are not official NWS values.
T = Trace of Precipitation, MM = Missing Value Source: NWS Daily Summary

Daily Weather History Graph

Daily Weather History Graph

Search for Another Location

Airport or City:

Trip Planner

Search our weather history database for the weather conditions in past years. The results will help you decide how hot, cold, wet, or windy it might be!

Date:

Astronomy

Nov. 16, 2012 Rise Set
Actual Time 6:16 AM CST 4:46 PM CST
Civil Twilight 5:50 AM CST 5:12 PM CST
Nautical Twilight 5:20 AM CST 5:41 PM CST
Astronomical Twilight 4:51 AM CST 6:10 PM CST
Moon 9:07 AM CST (11/16) 7:47 PM CST (11/16)
Length of Visible Light 11h 21m
Length of Day
10h 29m
Waxing Crescent, 12% of the Moon is Illuminated
Nov 16
Waxing Crescent
Nov 20
First Quarter
Nov 28
Full
Dec 6
Last Quarter
Dec 13
New

Hourly Weather History & Observations

Time (CST) Temp. Windchill Dew Point Humidity Pressure Visibility Wind Dir Wind Speed Gust Speed Precip Events Conditions
12:56 AM 41.0 °F - 39.0 °F 93% 30.26 in 10.0 mi Calm Calm - N/A   Partly Cloudy
1:56 AM 42.1 °F 40.2 °F 39.9 °F 92% 30.24 in 8.0 mi North 3.5 mph - N/A   Overcast
2:56 AM 44.1 °F 42.5 °F 42.1 °F 93% 30.24 in 9.0 mi North 3.5 mph - N/A   Overcast
3:56 AM 44.1 °F 42.5 °F 42.1 °F 93% 30.24 in 9.0 mi North 3.5 mph - N/A   Overcast
4:56 AM 43.0 °F - 41.0 °F 93% 30.25 in 7.0 mi Calm Calm - N/A   Clear
5:17 AM 42.8 °F - 41.0 °F 93% 30.25 in 5.0 mi Calm Calm - N/A   Scattered Clouds
5:25 AM 42.8 °F 41.1 °F 41.0 °F 93% 30.25 in 4.0 mi NE 3.5 mph - N/A   Mostly Cloudy
5:37 AM 42.8 °F 39.3 °F 41.0 °F 93% 30.25 in 5.0 mi NE 5.8 mph - N/A   Overcast
5:56 AM 44.1 °F 39.5 °F 43.0 °F 96% 30.25 in 5.0 mi ENE 8.1 mph - N/A   Overcast
6:56 AM 46.0 °F 43.1 °F 44.1 °F 93% 30.27 in 4.0 mi NE 5.8 mph - N/A   Overcast
7:56 AM 46.9 °F - 44.1 °F 90% 30.30 in 10.0 mi NE 4.6 mph - N/A   Overcast
8:52 AM 48.2 °F - 44.6 °F 87% 30.30 in 10.0 mi NE 5.8 mph - N/A   Overcast
8:56 AM 48.9 °F - 45.0 °F 86% 30.30 in 10.0 mi North - - N/A   Overcast
9:56 AM 52.0 °F - 45.0 °F 77% 30.30 in 10.0 mi NNE 6.9 mph - N/A   Mostly Cloudy
10:22 AM 53.6 °F - 44.6 °F 72% 30.30 in 10.0 mi NE 8.1 mph - N/A   Scattered Clouds
10:56 AM 55.9 °F - 44.1 °F 64% 30.29 in 10.0 mi NNE 6.9 mph - N/A   Scattered Clouds
11:56 AM 61.0 °F - 44.1 °F 54% 30.26 in 10.0 mi Variable 6.9 mph - N/A   Clear
12:56 PM 63.0 °F - 44.1 °F 50% 30.23 in 10.0 mi NE 10.4 mph 16.1 mph N/A   Clear
1:56 PM 63.0 °F - 43.0 °F 48% 30.22 in 10.0 mi ENE 6.9 mph - N/A   Clear
2:56 PM 63.0 °F - 43.0 °F 48% 30.22 in 10.0 mi NE 5.8 mph - N/A   Clear
3:56 PM 62.1 °F - 43.0 °F 50% 30.22 in 10.0 mi NNE 4.6 mph - N/A   Clear
4:56 PM 57.9 °F - 45.0 °F 62% 30.22 in 10.0 mi NNW 3.5 mph - N/A   Clear
5:56 PM 52.0 °F - 46.0 °F 80% 30.24 in 10.0 mi Calm Calm - N/A   Clear
6:56 PM 48.0 °F - 44.1 °F 86% 30.25 in 10.0 mi Calm Calm - N/A   Clear
7:56 PM 48.0 °F - 44.1 °F 86% 30.26 in 10.0 mi North 5.8 mph - N/A   Clear
8:56 PM 45.0 °F - 41.0 °F 86% 30.27 in 10.0 mi Calm Calm - N/A   Clear
9:56 PM 44.1 °F 42.5 °F 39.9 °F 85% 30.28 in 10.0 mi North 3.5 mph - N/A   Clear
10:56 PM 43.0 °F - 39.0 °F 86% 30.28 in 10.0 mi Calm Calm - N/A   Clear
11:56 PM 42.1 °F - 37.9 °F 85% 30.28 in 10.0 mi Calm Calm - N/A   Clear